owner,sensor,date,latitude,longitude,vertical_datum,wind_speed,wind_to_direction,wind_speed_of_gust,qcFlag 
DISL,ioos:station:DISL:CATA:1,2016-12-01T00:00:00Z,30.3085,-88.1395,0.0,3.2,332.0,99.0,'11111222,11111222,11144222' 
DISL,ioos:station:DISL:CATA:1,2016-12-01T00:30:00Z,30.3085,-88.1395,0.0,3.2,337.0,99.0,'11111222,11111222,11144222' 
DISL,ioos:station:DISL:CATA:1,2016-12-01T01:00:00Z,30.3085,-88.1395,0.0,4.7,335.0,99.0,'11111222,11111222,11144222' 
DISL,ioos:station:DISL:CATA:1,2016-12-01T01:30:00Z,30.3085,-88.1395,0.0,5.5,334.0,99.0,'11111222,11111222,11144222' 
DISL,ioos:station:DISL:CATA:1,2016-12-01T02:00:00Z,30.3085,-88.1395,0.0,5.0,338.0,99.0,'11111222,11111222,11144222' 
DISL,ioos:station:DISL:CATA:1,2016-12-01T02:30:00Z,30.3085,-88.1395,0.0,4.1,335.0,99.0,'11111222,11111222,11144222' 
DISL,ioos:station:DISL:CATA:1,2016-12-01T03:00:00Z,30.3085,-88.1395,0.0,4.1,334.0,99.0,'11111222,11111222,11144222' 
DISL,ioos:station:DISL:CATA:1,2016-12-01T03:30:00Z,30.3085,-88.1395,0.0,4.3,329.0,99.0,'11111222,11111222,11144222' 
DISL,ioos:station:DISL:CATA:1,2016-12-01T04:00:00Z,30.3085,-88.1395,0.0,4.7,330.0,99.0,'11111222,11111222,11144222' 
DISL,ioos:station:DISL:CATA:1,2016-12-01T04:30:00Z,30.3085,-88.1395,0.0,4.8,327.0,99.0,'11111222,11111222,11144222' 
DISL,ioos:station:DISL:CATA:1,2016-12-01T05:00:00Z,30.3085,-88.1395,0.0,6.0,337.0,99.0,'11111222,11111222,11144222' 
DISL,ioos:station:DISL:CATA:1,2016-12-01T05:30:00Z,30.3085,-88.1395,0.0,5.8,340.0,99.0,'11111222,11111222,11144222' 
DISL,ioos:station:DISL:CATA:1,2016-12-01T06:30:00Z,30.3085,-88.1395,0.0,5.6,342.0,99.0,'11111222,11111222,11144222' 
DISL,ioos:station:DISL:CATA:1,2016-12-01T07:00:00Z,30.3085,-88.1395,0.0,4.9,352.0,99.0,'11111222,11111222,11144222' 
DISL,ioos:station:DISL:CATA:1,2016-12-01T07:30:00Z,30.3085,-88.1395,0.0,3.6,353.0,99.0,'11111222,11111222,11144222' 
DISL,ioos:station:DISL:CATA:1,2016-12-01T08:00:00Z,30.3085,-88.1395,0.0,4.2,3.0,99.0,'11111222,11111222,11144222' 
DISL,ioos:station:DISL:CATA:1,2016-12-01T08:30:00Z,30.3085,-88.1395,0.0,4.2,1.0,99.0,'11111222,11111222,11144222' 
DISL,ioos:station:DISL:CATA:1,2016-12-01T09:00:00Z,30.3085,-88.1395,0.0,4.7,359.0,99.0,'11111222,11111222,11144222' 
DISL,ioos:station:DISL:CATA:1,2016-12-01T09:30:00Z,30.3085,-88.1395,0.0,4.7,5.0,99.0,'11111222,11111222,11144222' 
DISL,ioos:station:DISL:CATA:1,2016-12-01T10:00:00Z,30.3085,-88.1395,0.0,5.0,359.0,99.0,'11111222,11111222,11144222' 
DISL,ioos:station:DISL:CATA:1,2016-12-01T10:30:00Z,30.3085,-88.1395,0.0,5.3,0.0,99.0,'11111222,11111222,11144222' 
DISL,ioos:station:DISL:CATA:1,2016-12-01T11:00:00Z,30.3085,-88.1395,0.0,4.7,5.0,99.0,'11111222,11111222,11144222' 
DISL,ioos:station:DISL:CATA:1,2016-12-01T11:30:00Z,30.3085,-88.1395,0.0,4.1,10.0,99.0,'11111222,11111222,11144222' 
DISL,ioos:station:DISL:CATA:1,2016-12-01T12:00:00Z,30.3085,-88.1395,0.0,4.7,8.0,99.0,'11111222,11111222,11144222' 
DISL,ioos:station:DISL:CATA:1,2016-12-01T12:30:00Z,30.3085,-88.1395,0.0,4.4,11.0,99.0,'11111222,11111222,11144222' 
DISL,ioos:station:DISL:CATA:1,2016-12-01T13:00:00Z,30.3085,-88.1395,0.0,5.3,16.0,99.0,'11111222,11111222,11144222' 
DISL,ioos:station:DISL:CATA:1,2016-12-01T13:30:00Z,30.3085,-88.1395,0.0,4.7,17.0,99.0,'11111222,11111222,11144222' 
DISL,ioos:station:DISL:CATA:1,2016-12-01T14:00:00Z,30.3085,-88.1395,0.0,4.5,13.0,99.0,'11111222,11111222,11144222' 
DISL,ioos:station:DISL:CATA:1,2016-12-01T14:30:00Z,30.3085,-88.1395,0.0,7.4,36.0,99.0,'11111222,11111222,11144222' 
DISL,ioos:station:DISL:CATA:1,2016-12-01T15:00:00Z,30.3085,-88.1395,0.0,7.2,39.0,99.0,'11111222,11111222,11144222' 
DISL,ioos:station:DISL:CATA:1,2016-12-01T15:30:00Z,30.3085,-88.1395,0.0,6.2,28.0,99.0,'11111222,11111222,11144222' 
DISL,ioos:station:DISL:CATA:1,2016-12-01T16:00:00Z,30.3085,-88.1395,0.0,6.2,40.0,99.0,'11111222,11111222,11144222' 
DISL,ioos:station:DISL:CATA:1,2016-12-01T16:30:00Z,30.3085,-88.1395,0.0,6.5,40.0,99.0,'11111222,11111222,11144222' 
DISL,ioos:station:DISL:CATA:1,2016-12-01T17:00:00Z,30.3085,-88.1395,0.0,7.1,35.0,99.0,'11111222,11111222,11144222' 
DISL,ioos:station:DISL:CATA:1,2016-12-01T17:30:00Z,30.3085,-88.1395,0.0,6.8,42.0,99.0,'11111222,11111222,11144222' 
DISL,ioos:station:DISL:CATA:1,2016-12-01T18:00:00Z,30.3085,-88.1395,0.0,6.3,45.0,99.0,'11111222,11111222,11144222' 
DISL,ioos:station:DISL:CATA:1,2016-12-01T18:30:00Z,30.3085,-88.1395,0.0,6.3,44.0,99.0,'11111222,11111222,11144222' 
DISL,ioos:station:DISL:CATA:1,2016-12-01T19:00:00Z,30.3085,-88.1395,0.0,5.3,53.0,99.0,'11111222,11111222,11144222' 
DISL,ioos:station:DISL:CATA:1,2016-12-01T19:30:00Z,30.3085,-88.1395,0.0,5.7,44.0,99.0,'11111222,11111222,11144222' 
DISL,ioos:station:DISL:CATA:1,2016-12-01T20:00:00Z,30.3085,-88.1395,0.0,5.7,45.0,99.0,'11111222,11111222,11144222' 
DISL,ioos:station:DISL:CATA:1,2016-12-01T20:30:00Z,30.3085,-88.1395,0.0,5.9,43.0,99.0,'11111222,11111222,11144222' 
DISL,ioos:station:DISL:CATA:1,2016-12-01T21:00:00Z,30.3085,-88.1395,0.0,5.0,48.0,99.0,'11111222,11111222,11144222' 
DISL,ioos:station:DISL:CATA:1,2016-12-01T21:30:00Z,30.3085,-88.1395,0.0,5.6,44.0,99.0,'11111222,11111222,11144222' 
DISL,ioos:station:DISL:CATA:1,2016-12-01T22:00:00Z,30.3085,-88.1395,0.0,4.8,39.0,99.0,'11111222,11111222,11144222' 
DISL,ioos:station:DISL:CATA:1,2016-12-01T22:30:00Z,30.3085,-88.1395,0.0,3.6,19.0,99.0,'11111222,11111222,11144222' 
DISL,ioos:station:DISL:CATA:1,2016-12-01T23:00:00Z,30.3085,-88.1395,0.0,2.9,10.0,99.0,'11111222,11111222,11144222' 
DISL,ioos:station:DISL:CATA:1,2016-12-01T23:30:00Z,30.3085,-88.1395,0.0,2.4,5.0,99.0,'11111222,11111222,11144222' 
DISL,ioos:station:DISL:CATA:1,2016-12-02T00:00:00Z,30.3085,-88.1395,0.0,3.3,13.0,99.0,'11111222,11111222,11144222' 
DISL,ioos:station:DISL:CATA:1,2016-12-02T00:30:00Z,30.3085,-88.1395,0.0,3.6,8.0,99.0,'11111222,11111222,11144222' 
DISL,ioos:station:DISL:CATA:1,2016-12-02T01:00:00Z,30.3085,-88.1395,0.0,3.6,19.0,99.0,'11111222,11111222,11144222' 
DISL,ioos:station:DISL:CATA:1,2016-12-02T01:30:00Z,30.3085,-88.1395,0.0,3.4,13.0,99.0,'11111222,11111222,11144222' 
DISL,ioos:station:DISL:CATA:1,2016-12-02T02:00:00Z,30.3085,-88.1395,0.0,3.7,10.0,99.0,'11111222,11111222,11144222' 
DISL,ioos:station:DISL:CATA:1,2016-12-02T02:30:00Z,30.3085,-88.1395,0.0,3.4,6.0,99.0,'11111222,11111222,11144222' 
DISL,ioos:station:DISL:CATA:1,2016-12-02T03:00:00Z,30.3085,-88.1395,0.0,2.7,4.0,99.0,'11111222,11111222,11144222' 
DISL,ioos:station:DISL:CATA:1,2016-12-02T03:30:00Z,30.3085,-88.1395,0.0,3.0,2.0,99.0,'11111222,11111222,11144222' 
DISL,ioos:station:DISL:CATA:1,2016-12-02T04:00:00Z,30.3085,-88.1395,0.0,3.1,7.0,99.0,'11111222,11111222,11144222' 
DISL,ioos:station:DISL:CATA:1,2016-12-02T04:30:00Z,30.3085,-88.1395,0.0,3.2,9.0,99.0,'11111222,11111222,11144222' 
DISL,ioos:station:DISL:CATA:1,2016-12-02T05:00:00Z,30.3085,-88.1395,0.0,3.6,18.0,99.0,'11111222,11111222,11144222' 
DISL,ioos:station:DISL:CATA:1,2016-12-02T05:30:00Z,30.3085,-88.1395,0.0,3.9,18.0,99.0,'11111222,11111222,11144222' 
DISL,ioos:station:DISL:CATA:1,2016-12-02T06:30:00Z,30.3085,-88.1395,0.0,4.3,19.0,99.0,'11111222,11111222,11144222' 
DISL,ioos:station:DISL:CATA:1,2016-12-02T07:00:00Z,30.3085,-88.1395,0.0,6.5,50.0,99.0,'11111222,11111222,11144222' 
DISL,ioos:station:DISL:CATA:1,2016-12-02T07:30:00Z,30.3085,-88.1395,0.0,6.2,49.0,99.0,'11111222,11111222,11144222' 
DISL,ioos:station:DISL:CATA:1,2016-12-02T08:00:00Z,30.3085,-88.1395,0.0,5.6,61.0,99.0,'11111222,11111222,11144222' 
DISL,ioos:station:DISL:CATA:1,2016-12-02T08:30:00Z,30.3085,-88.1395,0.0,5.2,61.0,99.0,'11111222,11111222,11144222' 
DISL,ioos:station:DISL:CATA:1,2016-12-02T09:00:00Z,30.3085,-88.1395,0.0,6.0,51.0,99.0,'11111222,11111222,11144222' 
DISL,ioos:station:DISL:CATA:1,2016-12-02T09:30:00Z,30.3085,-88.1395,0.0,6.3,58.0,99.0,'11111222,11111222,11144222' 
DISL,ioos:station:DISL:CATA:1,2016-12-02T10:00:00Z,30.3085,-88.1395,0.0,6.9,50.0,99.0,'11111222,11111222,11144222' 
DISL,ioos:station:DISL:CATA:1,2016-12-02T10:30:00Z,30.3085,-88.1395,0.0,6.5,60.0,99.0,'11111222,11111222,11144222' 
DISL,ioos:station:DISL:CATA:1,2016-12-02T11:00:00Z,30.3085,-88.1395,0.0,7.0,59.0,99.0,'11111222,11111222,11144222' 
DISL,ioos:station:DISL:CATA:1,2016-12-02T11:30:00Z,30.3085,-88.1395,0.0,7.5,63.0,99.0,'11111222,11111222,11144222' 
DISL,ioos:station:DISL:CATA:1,2016-12-02T12:00:00Z,30.3085,-88.1395,0.0,8.0,65.0,99.0,'11111222,11111222,11144222' 
DISL,ioos:station:DISL:CATA:1,2016-12-02T12:30:00Z,30.3085,-88.1395,0.0,7.9,65.0,99.0,'11111222,11111222,11144222' 
DISL,ioos:station:DISL:CATA:1,2016-12-02T13:00:00Z,30.3085,-88.1395,0.0,7.6,65.0,99.0,'11111222,11111222,11144222' 
DISL,ioos:station:DISL:CATA:1,2016-12-02T13:30:00Z,30.3085,-88.1395,0.0,8.4,65.0,99.0,'11111222,11111222,11144222' 
DISL,ioos:station:DISL:CATA:1,2016-12-02T14:00:00Z,30.3085,-88.1395,0.0,8.2,53.0,99.0,'11111222,11111222,11144222' 
DISL,ioos:station:DISL:CATA:1,2016-12-02T14:30:00Z,30.3085,-88.1395,0.0,7.9,60.0,99.0,'11111222,11111222,11144222' 
DISL,ioos:station:DISL:CATA:1,2016-12-02T15:00:00Z,30.3085,-88.1395,0.0,7.4,57.0,99.0,'11111222,11111222,11144222' 
DISL,ioos:station:DISL:CATA:1,2016-12-02T15:30:00Z,30.3085,-88.1395,0.0,6.9,68.0,99.0,'11111222,11111222,11144222' 
DISL,ioos:station:DISL:CATA:1,2016-12-02T16:00:00Z,30.3085,-88.1395,0.0,7.4,71.0,99.0,'11111222,11111222,11144222' 
DISL,ioos:station:DISL:CATA:1,2016-12-02T16:30:00Z,30.3085,-88.1395,0.0,6.5,79.0,99.0,'11111222,11111222,11144222' 
DISL,ioos:station:DISL:CATA:1,2016-12-02T17:00:00Z,30.3085,-88.1395,0.0,5.9,79.0,99.0,'11111222,11111222,11144222' 
DISL,ioos:station:DISL:CATA:1,2016-12-02T17:30:00Z,30.3085,-88.1395,0.0,5.1,69.0,99.0,'11111222,11111222,11144222' 
DISL,ioos:station:DISL:CATA:1,2016-12-02T18:00:00Z,30.3085,-88.1395,0.0,4.6,64.0,99.0,'11111222,11111222,11144222' 
DISL,ioos:station:DISL:CATA:1,2016-12-02T18:30:00Z,30.3085,-88.1395,0.0,5.2,43.0,99.0,'11111222,11111222,11144222' 
DISL,ioos:station:DISL:CATA:1,2016-12-02T19:00:00Z,30.3085,-88.1395,0.0,4.8,48.0,99.0,'11111222,11111222,11144222' 
DISL,ioos:station:DISL:CATA:1,2016-12-02T19:30:00Z,30.3085,-88.1395,0.0,5.6,46.0,99.0,'11111222,11111222,11144222' 
DISL,ioos:station:DISL:CATA:1,2016-12-02T20:00:00Z,30.3085,-88.1395,0.0,4.9,42.0,99.0,'11111222,11111222,11144222' 
DISL,ioos:station:DISL:CATA:1,2016-12-02T20:30:00Z,30.3085,-88.1395,0.0,4.7,54.0,99.0,'11111222,11111222,11144222' 
DISL,ioos:station:DISL:CATA:1,2016-12-02T21:00:00Z,30.3085,-88.1395,0.0,4.4,46.0,99.0,'11111222,11111222,11144222' 
DISL,ioos:station:DISL:CATA:1,2016-12-02T21:30:00Z,30.3085,-88.1395,0.0,4.3,42.0,99.0,'11111222,11111222,11144222' 
DISL,ioos:station:DISL:CATA:1,2016-12-02T22:00:00Z,30.3085,-88.1395,0.0,3.4,60.0,99.0,'11111222,11111222,11144222' 
DISL,ioos:station:DISL:CATA:1,2016-12-02T22:30:00Z,30.3085,-88.1395,0.0,3.8,77.0,99.0,'11111222,11111222,11144222' 
DISL,ioos:station:DISL:CATA:1,2016-12-02T23:00:00Z,30.3085,-88.1395,0.0,3.4,66.0,99.0,'11111222,11111222,11144222' 
DISL,ioos:station:DISL:CATA:1,2016-12-02T23:30:00Z,30.3085,-88.1395,0.0,4.0,57.0,99.0,'11111222,11111222,11144222' 
DISL,ioos:station:DISL:CATA:1,2016-12-03T00:00:00Z,30.3085,-88.1395,0.0,4.9,65.0,99.0,'11111222,11111222,11144222' 
DISL,ioos:station:DISL:CATA:1,2016-12-03T00:30:00Z,30.3085,-88.1395,0.0,5.1,76.0,99.0,'11111222,11111222,11144222' 
DISL,ioos:station:DISL:CATA:1,2016-12-03T01:00:00Z,30.3085,-88.1395,0.0,5.2,68.0,99.0,'11111222,11111222,11144222' 
DISL,ioos:station:DISL:CATA:1,2016-12-03T01:30:00Z,30.3085,-88.1395,0.0,5.8,66.0,99.0,'11111222,11111222,11144222' 
DISL,ioos:station:DISL:CATA:1,2016-12-03T02:00:00Z,30.3085,-88.1395,0.0,5.9,61.0,99.0,'11111222,11111222,11144222' 
DISL,ioos:station:DISL:CATA:1,2016-12-03T02:30:00Z,30.3085,-88.1395,0.0,6.8,57.0,99.0,'11111222,11111222,11144222' 
DISL,ioos:station:DISL:CATA:1,2016-12-03T03:00:00Z,30.3085,-88.1395,0.0,7.8,59.0,99.0,'11111222,11111222,11144222' 
DISL,ioos:station:DISL:CATA:1,2016-12-03T03:30:00Z,30.3085,-88.1395,0.0,6.8,54.0,99.0,'11111222,11111222,11144222' 
DISL,ioos:station:DISL:CATA:1,2016-12-03T04:00:00Z,30.3085,-88.1395,0.0,7.2,60.0,99.0,'11111222,11111222,11144222' 
DISL,ioos:station:DISL:CATA:1,2016-12-03T04:30:00Z,30.3085,-88.1395,0.0,6.2,57.0,99.0,'11111222,11111222,11144222' 
DISL,ioos:station:DISL:CATA:1,2016-12-03T05:00:00Z,30.3085,-88.1395,0.0,6.5,63.0,99.0,'11111222,11111222,11144222' 
DISL,ioos:station:DISL:CATA:1,2016-12-03T05:30:00Z,30.3085,-88.1395,0.0,6.2,64.0,99.0,'11111222,11111222,11144222' 
DISL,ioos:station:DISL:CATA:1,2016-12-03T06:30:00Z,30.3085,-88.1395,0.0,7.4,64.0,99.0,'11111222,11111222,11144222' 
DISL,ioos:station:DISL:CATA:1,2016-12-03T07:00:00Z,30.3085,-88.1395,0.0,7.6,77.0,99.0,'11111222,11111222,11144222' 
DISL,ioos:station:DISL:CATA:1,2016-12-03T07:30:00Z,30.3085,-88.1395,0.0,8.1,80.0,99.0,'11111222,11111222,11144222' 
DISL,ioos:station:DISL:CATA:1,2016-12-03T08:00:00Z,30.3085,-88.1395,0.0,7.8,84.0,99.0,'11111222,11111222,11144222' 
DISL,ioos:station:DISL:CATA:1,2016-12-03T08:30:00Z,30.3085,-88.1395,0.0,6.8,80.0,99.0,'11111222,11111222,11144222' 
DISL,ioos:station:DISL:CATA:1,2016-12-03T09:00:00Z,30.3085,-88.1395,0.0,4.2,66.0,99.0,'11111222,11111222,11144222' 
DISL,ioos:station:DISL:CATA:1,2016-12-03T09:30:00Z,30.3085,-88.1395,0.0,7.5,65.0,99.0,'11111222,11111222,11144222' 
DISL,ioos:station:DISL:CATA:1,2016-12-03T10:00:00Z,30.3085,-88.1395,0.0,9.6,83.0,99.0,'11111222,11111222,11144222' 
DISL,ioos:station:DISL:CATA:1,2016-12-03T10:30:00Z,30.3085,-88.1395,0.0,8.4,76.0,99.0,'11111222,11111222,11144222' 
DISL,ioos:station:DISL:CATA:1,2016-12-03T11:00:00Z,30.3085,-88.1395,0.0,9.0,80.0,99.0,'11111222,11111222,11144222' 
DISL,ioos:station:DISL:CATA:1,2016-12-03T11:30:00Z,30.3085,-88.1395,0.0,8.5,77.0,99.0,'11111222,11111222,11144222' 
DISL,ioos:station:DISL:CATA:1,2016-12-03T12:00:00Z,30.3085,-88.1395,0.0,8.4,76.0,99.0,'11111222,11111222,11144222' 
DISL,ioos:station:DISL:CATA:1,2016-12-03T12:30:00Z,30.3085,-88.1395,0.0,8.4,77.0,99.0,'11111222,11111222,11144222' 
DISL,ioos:station:DISL:CATA:1,2016-12-03T13:00:00Z,30.3085,-88.1395,0.0,8.3,82.0,99.0,'11111222,11111222,11144222' 
DISL,ioos:station:DISL:CATA:1,2016-12-03T13:30:00Z,30.3085,-88.1395,0.0,9.1,83.0,99.0,'11111222,11111222,11144222' 
DISL,ioos:station:DISL:CATA:1,2016-12-03T14:00:00Z,30.3085,-88.1395,0.0,9.1,77.0,99.0,'11111222,11111222,11144222' 
DISL,ioos:station:DISL:CATA:1,2016-12-03T14:30:00Z,30.3085,-88.1395,0.0,8.9,76.0,99.0,'11111222,11111222,11144222' 
DISL,ioos:station:DISL:CATA:1,2016-12-03T15:00:00Z,30.3085,-88.1395,0.0,9.9,81.0,99.0,'11111222,11111222,11144222' 
DISL,ioos:station:DISL:CATA:1,2016-12-03T15:30:00Z,30.3085,-88.1395,0.0,8.8,77.0,99.0,'11111222,11111222,11144222' 
DISL,ioos:station:DISL:CATA:1,2016-12-03T16:00:00Z,30.3085,-88.1395,0.0,8.1,83.0,99.0,'11111222,11111222,11144222' 
DISL,ioos:station:DISL:CATA:1,2016-12-03T16:30:00Z,30.3085,-88.1395,0.0,8.1,88.0,99.0,'11111222,11111222,11144222' 
DISL,ioos:station:DISL:CATA:1,2016-12-03T17:00:00Z,30.3085,-88.1395,0.0,6.7,93.0,99.0,'11111222,11111222,11144222' 
DISL,ioos:station:DISL:CATA:1,2016-12-03T17:30:00Z,30.3085,-88.1395,0.0,8.0,99.0,99.0,'11111222,11111222,11144222' 
DISL,ioos:station:DISL:CATA:1,2016-12-03T18:00:00Z,30.3085,-88.1395,0.0,6.9,93.0,99.0,'11111222,11111222,11144222' 
DISL,ioos:station:DISL:CATA:1,2016-12-03T18:30:00Z,30.3085,-88.1395,0.0,7.4,85.0,99.0,'11111222,11111222,11144222' 
DISL,ioos:station:DISL:CATA:1,2016-12-03T19:00:00Z,30.3085,-88.1395,0.0,6.2,87.0,99.0,'11111222,11111222,11144222' 
DISL,ioos:station:DISL:CATA:1,2016-12-03T19:30:00Z,30.3085,-88.1395,0.0,6.3,87.0,99.0,'11111222,11111222,11144222' 
DISL,ioos:station:DISL:CATA:1,2016-12-03T20:00:00Z,30.3085,-88.1395,0.0,6.7,89.0,99.0,'11111222,11111222,11144222' 
DISL,ioos:station:DISL:CATA:1,2016-12-03T20:30:00Z,30.3085,-88.1395,0.0,6.2,83.0,99.0,'11111222,11111222,11144222' 
DISL,ioos:station:DISL:CATA:1,2016-12-03T21:00:00Z,30.3085,-88.1395,0.0,6.2,85.0,99.0,'11111222,11111222,11144222' 
DISL,ioos:station:DISL:CATA:1,2016-12-03T21:30:00Z,30.3085,-88.1395,0.0,6.4,82.0,99.0,'11111222,11111222,11144222' 
DISL,ioos:station:DISL:CATA:1,2016-12-03T22:00:00Z,30.3085,-88.1395,0.0,6.3,84.0,99.0,'11111222,11111222,11144222' 
DISL,ioos:station:DISL:CATA:1,2016-12-03T22:30:00Z,30.3085,-88.1395,0.0,5.0,83.0,99.0,'11111222,11111222,11144222' 
DISL,ioos:station:DISL:CATA:1,2016-12-03T23:00:00Z,30.3085,-88.1395,0.0,5.2,80.0,99.0,'11111222,11111222,11144222' 
DISL,ioos:station:DISL:CATA:1,2016-12-03T23:30:00Z,30.3085,-88.1395,0.0,5.8,79.0,99.0,'11111222,11111222,11144222' 
DISL,ioos:station:DISL:CATA:1,2016-12-04T00:00:00Z,30.3085,-88.1395,0.0,6.6,79.0,99.0,'11111222,11111222,11144222' 
DISL,ioos:station:DISL:CATA:1,2016-12-04T00:30:00Z,30.3085,-88.1395,0.0,7.4,83.0,99.0,'11111222,11111222,11144222' 
DISL,ioos:station:DISL:CATA:1,2016-12-04T01:00:00Z,30.3085,-88.1395,0.0,8.7,81.0,99.0,'11111222,11111222,11144222' 
DISL,ioos:station:DISL:CATA:1,2016-12-04T01:30:00Z,30.3085,-88.1395,0.0,8.1,72.0,99.0,'11111222,11111222,11144222' 
DISL,ioos:station:DISL:CATA:1,2016-12-04T02:00:00Z,30.3085,-88.1395,0.0,8.4,71.0,99.0,'11111222,11111222,11144222' 
DISL,ioos:station:DISL:CATA:1,2016-12-04T02:30:00Z,30.3085,-88.1395,0.0,8.4,70.0,99.0,'11111222,11111222,11144222' 
DISL,ioos:station:DISL:CATA:1,2016-12-04T03:00:00Z,30.3085,-88.1395,0.0,8.5,78.0,99.0,'11111222,11111222,11144222' 
DISL,ioos:station:DISL:CATA:1,2016-12-04T03:30:00Z,30.3085,-88.1395,0.0,8.1,84.0,99.0,'11111222,11111222,11144222' 
DISL,ioos:station:DISL:CATA:1,2016-12-04T04:00:00Z,30.3085,-88.1395,0.0,8.5,96.0,99.0,'11111222,11111222,11144222' 
DISL,ioos:station:DISL:CATA:1,2016-12-04T04:30:00Z,30.3085,-88.1395,0.0,9.1,100.0,99.0,'11111222,11111222,11144222' 
DISL,ioos:station:DISL:CATA:1,2016-12-04T05:00:00Z,30.3085,-88.1395,0.0,9.7,104.0,99.0,'11111222,11111222,11144222' 
DISL,ioos:station:DISL:CATA:1,2016-12-04T05:30:00Z,30.3085,-88.1395,0.0,9.1,105.0,99.0,'11111222,11111222,11144222' 
DISL,ioos:station:DISL:CATA:1,2016-12-04T06:30:00Z,30.3085,-88.1395,0.0,6.5,100.0,99.0,'11111222,11111222,11144222' 
DISL,ioos:station:DISL:CATA:1,2016-12-04T07:00:00Z,30.3085,-88.1395,0.0,8.2,111.0,99.0,'11111222,11111222,11144222' 
DISL,ioos:station:DISL:CATA:1,2016-12-04T07:30:00Z,30.3085,-88.1395,0.0,9.4,118.0,99.0,'11111222,11111222,11144222' 
DISL,ioos:station:DISL:CATA:1,2016-12-04T08:00:00Z,30.3085,-88.1395,0.0,7.9,125.0,99.0,'11111222,11111222,11144222' 
DISL,ioos:station:DISL:CATA:1,2016-12-04T08:30:00Z,30.3085,-88.1395,0.0,8.2,122.0,99.0,'11111222,11111222,11144222' 
DISL,ioos:station:DISL:CATA:1,2016-12-04T09:00:00Z,30.3085,-88.1395,0.0,7.5,120.0,99.0,'11111222,11111222,11144222' 
DISL,ioos:station:DISL:CATA:1,2016-12-04T09:30:00Z,30.3085,-88.1395,0.0,7.3,121.0,99.0,'11111222,11111222,11144222' 
DISL,ioos:station:DISL:CATA:1,2016-12-04T10:00:00Z,30.3085,-88.1395,0.0,6.9,122.0,99.0,'11111222,11111222,11144222' 
DISL,ioos:station:DISL:CATA:1,2016-12-04T10:30:00Z,30.3085,-88.1395,0.0,5.0,108.0,99.0,'11111222,11111222,11144222' 
DISL,ioos:station:DISL:CATA:1,2016-12-04T11:00:00Z,30.3085,-88.1395,0.0,6.6,129.0,99.0,'11111222,11111222,11144222' 
DISL,ioos:station:DISL:CATA:1,2016-12-04T11:30:00Z,30.3085,-88.1395,0.0,8.8,137.0,99.0,'11111222,11111222,11144222' 
DISL,ioos:station:DISL:CATA:1,2016-12-04T12:00:00Z,30.3085,-88.1395,0.0,6.6,119.0,99.0,'11111222,11111222,11144222' 
DISL,ioos:station:DISL:CATA:1,2016-12-04T12:30:00Z,30.3085,-88.1395,0.0,7.3,139.0,99.0,'11111222,11111222,11144222' 
DISL,ioos:station:DISL:CATA:1,2016-12-04T13:00:00Z,30.3085,-88.1395,0.0,8.4,151.0,99.0,'11111222,11111222,11144222' 
DISL,ioos:station:DISL:CATA:1,2016-12-04T13:30:00Z,30.3085,-88.1395,0.0,6.6,112.0,99.0,'11111222,11111222,11144222' 
DISL,ioos:station:DISL:CATA:1,2016-12-04T14:00:00Z,30.3085,-88.1395,0.0,3.5,302.0,99.0,'11111222,11111222,11144222' 
DISL,ioos:station:DISL:CATA:1,2016-12-04T14:30:00Z,30.3085,-88.1395,0.0,3.9,302.0,99.0,'11111222,11111222,11144222' 
DISL,ioos:station:DISL:CATA:1,2016-12-04T15:00:00Z,30.3085,-88.1395,0.0,4.2,249.0,99.0,'11111222,11111222,11144222' 
DISL,ioos:station:DISL:CATA:1,2016-12-04T15:30:00Z,30.3085,-88.1395,0.0,4.5,238.0,99.0,'11111222,11111222,11144222' 
DISL,ioos:station:DISL:CATA:1,2016-12-04T16:00:00Z,30.3085,-88.1395,0.0,2.5,259.0,99.0,'11111222,11111222,11144222' 
DISL,ioos:station:DISL:CATA:1,2016-12-04T16:30:00Z,30.3085,-88.1395,0.0,1.4,172.0,99.0,'11111222,11111222,11144222' 
DISL,ioos:station:DISL:CATA:1,2016-12-04T17:00:00Z,30.3085,-88.1395,0.0,1.2,129.0,99.0,'11111222,11111222,11144222' 
DISL,ioos:station:DISL:CATA:1,2016-12-04T17:30:00Z,30.3085,-88.1395,0.0,3.1,155.0,99.0,'11111222,11111222,11144222' 
DISL,ioos:station:DISL:CATA:1,2016-12-04T18:00:00Z,30.3085,-88.1395,0.0,1.0,198.0,99.0,'11111222,11111222,11144222' 
DISL,ioos:station:DISL:CATA:1,2016-12-04T18:30:00Z,30.3085,-88.1395,0.0,2.2,153.0,99.0,'11111222,11111222,11144222' 
DISL,ioos:station:DISL:CATA:1,2016-12-04T19:00:00Z,30.3085,-88.1395,0.0,2.0,236.0,99.0,'11111222,11111222,11144222' 
DISL,ioos:station:DISL:CATA:1,2016-12-04T19:30:00Z,30.3085,-88.1395,0.0,4.0,199.0,99.0,'11111222,11111222,11144222' 
DISL,ioos:station:DISL:CATA:1,2016-12-04T20:00:00Z,30.3085,-88.1395,0.0,4.3,204.0,99.0,'11111222,11111222,11144222' 
DISL,ioos:station:DISL:CATA:1,2016-12-04T20:30:00Z,30.3085,-88.1395,0.0,2.5,212.0,99.0,'11111222,11111222,11144222' 
DISL,ioos:station:DISL:CATA:1,2016-12-04T21:00:00Z,30.3085,-88.1395,0.0,4.2,194.0,99.0,'11111222,11111222,11144222' 
DISL,ioos:station:DISL:CATA:1,2016-12-04T21:30:00Z,30.3085,-88.1395,0.0,4.6,188.0,99.0,'11111222,11111222,11144222' 
DISL,ioos:station:DISL:CATA:1,2016-12-04T22:00:00Z,30.3085,-88.1395,0.0,7.8,287.0,99.0,'11111222,11111222,11144222' 
DISL,ioos:station:DISL:CATA:1,2016-12-04T22:30:00Z,30.3085,-88.1395,0.0,3.2,296.0,99.0,'11111222,11111222,11144222' 
DISL,ioos:station:DISL:CATA:1,2016-12-04T23:00:00Z,30.3085,-88.1395,0.0,7.4,342.0,99.0,'11111222,11111222,11144222' 
DISL,ioos:station:DISL:CATA:1,2016-12-04T23:30:00Z,30.3085,-88.1395,0.0,6.1,349.0,99.0,'11111222,11111222,11144222' 
DISL,ioos:station:DISL:CATA:1,2016-12-05T00:00:00Z,30.3085,-88.1395,0.0,5.5,356.0,99.0,'11111222,11111222,11144222' 
DISL,ioos:station:DISL:CATA:1,2016-12-05T00:30:00Z,30.3085,-88.1395,0.0,5.6,354.0,99.0,'11111222,11111222,11144222' 
DISL,ioos:station:DISL:CATA:1,2016-12-05T01:00:00Z,30.3085,-88.1395,0.0,4.2,0.0,99.0,'11111222,11111222,11144222' 
DISL,ioos:station:DISL:CATA:1,2016-12-05T01:30:00Z,30.3085,-88.1395,0.0,5.7,347.0,99.0,'11111222,11111222,11144222' 
DISL,ioos:station:DISL:CATA:1,2016-12-05T02:00:00Z,30.3085,-88.1395,0.0,4.3,14.0,99.0,'11111222,11111222,11144222' 
DISL,ioos:station:DISL:CATA:1,2016-12-05T02:30:00Z,30.3085,-88.1395,0.0,6.2,10.0,99.0,'11111222,11111222,11144222' 
DISL,ioos:station:DISL:CATA:1,2016-12-05T03:00:00Z,30.3085,-88.1395,0.0,5.0,33.0,99.0,'11111222,11111222,11144222' 
DISL,ioos:station:DISL:CATA:1,2016-12-05T03:30:00Z,30.3085,-88.1395,0.0,2.0,24.0,99.0,'11111222,11111222,11144222' 
DISL,ioos:station:DISL:CATA:1,2016-12-05T04:00:00Z,30.3085,-88.1395,0.0,3.3,351.0,99.0,'11111222,11111222,11144222' 
DISL,ioos:station:DISL:CATA:1,2016-12-05T04:30:00Z,30.3085,-88.1395,0.0,1.5,45.0,99.0,'11111222,11111222,11144222' 
DISL,ioos:station:DISL:CATA:1,2016-12-05T05:00:00Z,30.3085,-88.1395,0.0,3.9,88.0,99.0,'11111222,11111222,11144222' 
DISL,ioos:station:DISL:CATA:1,2016-12-05T05:30:00Z,30.3085,-88.1395,0.0,6.0,104.0,99.0,'11111222,11111222,11144222' 
DISL,ioos:station:DISL:CATA:1,2016-12-05T06:30:00Z,30.3085,-88.1395,0.0,3.1,75.0,99.0,'11111222,11111222,11144222' 
DISL,ioos:station:DISL:CATA:1,2016-12-05T07:00:00Z,30.3085,-88.1395,0.0,2.5,67.0,99.0,'11111222,11111222,11144222' 
DISL,ioos:station:DISL:CATA:1,2016-12-05T07:30:00Z,30.3085,-88.1395,0.0,3.3,95.0,99.0,'11111222,11111222,11144222' 
DISL,ioos:station:DISL:CATA:1,2016-12-05T08:00:00Z,30.3085,-88.1395,0.0,3.2,89.0,99.0,'11111222,11111222,11144222' 
DISL,ioos:station:DISL:CATA:1,2016-12-05T08:30:00Z,30.3085,-88.1395,0.0,3.4,102.0,99.0,'11111222,11111222,11144222' 